FW3572 Weather Reports


Display with metric or nautical units.
time (UTC)temp
F
wind
direction
speed
MPH
gust
MPH
rain 1hr
in
rain 24hr
in
rain mn
in
humidity
%
barometer
mb
20220516052541 76 292 7.0 11.0 0.00 0.46 0.00 68 1014.9
20220516052041 76 238 2.0 5.0 0.00 0.46 0.00 68 1014.7
20220516051539 76 242 1.0 4.0 0.00 0.46 0.00 67 1014.7
20220516051038 76 194 1.0 3.0 0.00 0.46 0.00 67 1014.5
20220516050543 76 227 0.0 3.0 0.00 0.46 0.00 67 1014.4
20220516050040 76 225 0.0 3.0 0.00 0.46 0.00 66 1014.7
20220516045537 76 225 0.0 0.0 0.00 0.46 0.00 66 1014.6
20220516045036 76 225 0.0 1.0 0.00 0.46 0.00 66 1014.6
20220516044534 76 225 0.0 2.0 0.00 0.46 0.00 66 1014.7
20220516044045 76 225 0.0 3.0 0.00 0.46 0.00 66 1015.1
20220516043535 76 240 0.0 4.0 0.00 0.46 0.00 66 1015.1
20220516043038 76 238 0.0 4.0 0.00 0.46 0.00 66 1015.2
20220516042633 76 247 0.0 1.0 0.00 0.46 0.00 66 1015.1
20220516042032 76 247 0.0 4.0 0.00 0.46 0.00 66 1015.2
20220516041532 76 247 0.0 4.0 0.00 0.46 0.00 66 1015.3
20220516041030 76 247 0.0 3.0 0.00 0.46 0.00 66 1015.3
20220516040539 76 246 0.0 3.0 0.00 0.46 0.00 66 1015.3
20220516040029 76 242 1.0 4.0 0.00 0.46 0.00 66 1015.3
20220516035532 76 228 0.0 3.0 0.00 0.46 0.46 66 1015.2
20220516035032 77 226 1.0 3.0 0.00 0.46 0.46 66 1015.3
20220516034529 77 226 0.0 4.0 0.00 0.46 0.46 66 1015.3
20220516034032 77 226 0.0 5.0 0.00 0.46 0.46 66 1015.3
20220516033526 77 227 0.0 5.0 0.00 0.46 0.46 66 1015.3
20220516033026 77 286 0.0 6.0 0.00 0.46 0.46 66 1015.4
20220516032526 77 236 1.0 5.0 0.00 0.46 0.46 66 1015.2
20220516032026 78 242 1.0 7.0 0.00 0.46 0.46 66 1015.3
20220516031529 78 258 1.0 7.0 0.00 0.46 0.46 65 1015.3
20220516031025 78 245 0.0 7.0 0.00 0.46 0.46 65 1015.3
20220516030528 79 247 2.0 7.0 0.00 0.46 0.46 65 1015.3
20220516030033 79 223 1.0 7.0 0.00 0.46 0.46 65 1015.4
20220516025525 79 235 2.0 7.0 0.00 0.46 0.46 65 1015.5
20220516025026 79 212 4.0 7.0 0.00 0.46 0.46 65 1015.5
20220516024526 79 182 3.0 7.0 0.00 0.46 0.46 65 1015.4
20220516024024 78 229 3.0 9.0 0.00 0.46 0.46 64 1015.3
20220516023526 79 192 4.0 9.0 0.00 0.46 0.46 64 1015.2
20220516023024 79 198 1.0 5.0 0.00 0.46 0.46 64 1015.3
20220516022524 79 218 2.0 5.0 0.00 0.46 0.46 64 1015.1
20220516022027 79 197 2.0 10.0 0.00 0.46 0.46 64 1015.0
20220516021537 79 162 4.0 11.0 0.00 0.46 0.46 64 1014.9
20220516021023 79 185 4.0 14.0 0.00 0.46 0.46 64 1014.8
20220516020625 79 179 5.0 14.0 0.00 0.46 0.46 64 1014.9
20220516020023 79 166 4.0 15.0 0.00 0.46 0.46 64 1014.8
20220516015523 79 134 5.0 18.0 0.00 0.46 0.46 64 1014.5
20220516015022 79 127 7.0 18.0 0.00 0.46 0.46 64 1014.5
20220516014521 79 168 5.0 14.0 0.00 0.46 0.46 64 1014.4
20220516014031 79 186 7.0 13.0 0.00 0.46 0.46 64 1014.3
20220516013521 79 138 6.0 13.0 0.00 0.46 0.46 64 1014.4
20220516013028 79 147 5.0 11.0 0.00 0.46 0.46 64 1014.5
20220516012524 79 155 8.0 12.0 0.00 0.46 0.46 64 1014.6
20220516012022 79 156 7.0 14.0 0.00 0.46 0.46 64 1014.4
20220516011520 79 137 4.0 14.0 0.00 0.46 0.46 64 1014.2
20220516011020 79 150 3.0 11.0 0.00 0.46 0.46 64 1014.2
20220516010526 79 178 4.0 10.0 0.00 0.46 0.46 64 1014.1
20220516010028 79 155 4.0 16.0 0.00 0.46 0.46 63 1014.0
20220516005520 79 140 3.0 16.0 0.00 0.46 0.46 63 1013.9
20220516005020 79 186 3.0 12.0 0.00 0.46 0.46 63 1013.8
20220516004530 79 156 5.0 14.0 0.00 0.46 0.46 63 1013.7
20220516004019 79 122 8.0 14.0 0.00 0.46 0.46 63 1013.5
20220516003519 79 226 4.0 12.0 0.00 0.46 0.46 63 1013.6
20220516003041 79 154 3.0 16.0 0.00 0.46 0.46 63 1013.6
20220516002518 79 150 5.0 17.0 0.00 0.46 0.46 63 1013.5
20220516002019 79 126 6.0 17.0 0.00 0.46 0.46 63 1013.4
20220516001518 79 167 6.0 13.0 0.00 0.46 0.46 63 1013.4
20220516001018 79 158 6.0 20.0 0.00 0.46 0.46 63 1013.3
20220516000524 79 151 6.0 13.0 0.00 0.46 0.46 63 1013.2
20220516000017 79 120 3.0 16.0 0.00 0.46 0.46 63 1013.1
20220515235518 79 150 9.0 19.0 0.00 0.46 0.46 63 1013.0
20220515235018 79 142 8.0 19.0 0.00 0.46 0.46 63 1013.0
20220515234517 80 153 5.0 14.0 0.00 0.46 0.46 63 1013.1
20220515234019 80 144 5.0 14.0 0.00 0.46 0.46 63 1013.1
20220515233516 80 114 7.0 14.0 0.00 0.46 0.46 63 1013.1
20220515233033 80 116 7.0 17.0 0.00 0.46 0.46 62 1013.1
20220515232517 80 167 9.0 19.0 0.00 0.46 0.46 62 1013.1
20220515232016 80 185 6.0 19.0 0.00 0.46 0.46 62 1012.9
20220515231516 80 157 5.0 17.0 0.00 0.46 0.46 62 1012.8
20220515231015 80 144 7.0 18.0 0.00 0.46 0.46 61 1012.8
20220515230515 80 143 8.0 20.0 0.00 0.46 0.46 61 1012.8
20220515230015 80 145 11.0 20.0 0.00 0.46 0.46 61 1012.9
20220515225517 80 124 9.0 16.0 0.00 0.46 0.46 60 1012.7
20220515225015 80 160 7.0 17.0 0.00 0.46 0.46 60 1012.8
20220515224514 80 157 9.0 19.0 0.00 0.46 0.46 60 1012.9
20220515224017 80 132 11.0 19.0 0.00 0.46 0.46 60 1012.8
20220515223515 80 160 9.0 20.0 0.00 0.46 0.46 60 1012.8
20220515223014 81 128 9.0 17.0 0.00 0.46 0.46 60 1012.8
20220515222514 81 142 9.0 18.0 0.00 0.46 0.46 60 1012.9
20220515222014 81 119 11.0 19.0 0.00 0.46 0.46 60 1012.8
20220515221520 81 139 12.0 21.0 0.00 0.46 0.46 60 1012.8
20220515221013 81 88 12.0 21.0 0.00 0.46 0.46 60 1012.8
20220515220517 81 149 8.0 18.0 0.00 0.46 0.46 59 1012.7
20220515220016 81 155 6.0 18.0 0.00 0.46 0.46 59 1012.6
20220515215513 82 155 5.0 15.0 0.00 0.46 0.46 59 1012.7
20220515215016 81 117 7.0 19.0 0.00 0.46 0.46 59 1012.8
20220515214513 81 153 10.0 19.0 0.00 0.46 0.46 59 1012.8
20220515214113 82 132 6.0 22.0 0.00 0.46 0.46 58 1012.7
20220515213512 82 127 8.0 22.0 0.00 0.46 0.46 57 1012.8
20220515213012 82 101 9.0 17.0 0.00 0.46 0.46 56 1012.7
20220515212512 82 160 5.0 14.0 0.00 0.46 0.46 56 1012.8
20220515212012 82 150 6.0 16.0 0.00 0.46 0.46 56 1012.7
20220515211512 82 141 6.0 15.0 0.00 0.46 0.46 55 1012.6
20220515211011 82 131 10.0 18.0 0.00 0.46 0.46 55 1012.7
20220515210517 82 125 7.0 18.0 0.00 0.46 0.46 56 1012.7
20220515210011 82 131 8.0 16.0 0.00 0.46 0.46 55 1012.6
20220515205511 83 153 6.0 16.0 0.00 0.46 0.46 55 1012.5
20220515205010 82 149 9.0 20.0 0.00 0.46 0.46 55 1012.5
20220515204517 82 118 9.0 20.0 0.00 0.46 0.46 55 1012.6
20220515204011 82 161 6.0 19.0 0.00 0.46 0.46 56 1012.6
20220515203511 83 179 5.0 15.0 0.00 0.46 0.46 57 1012.7
20220515203011 83 121 5.0 16.0 0.00 0.46 0.46 55 1012.7
20220515202508 82 153 8.0 16.0 0.00 0.46 0.46 55 1012.7
20220515202006 83 126 6.0 16.0 0.00 0.46 0.46 56 1012.8
20220515201511 83 134 7.0 18.0 0.00 0.46 0.46 55 1013.0
20220515201005 83 161 9.0 18.0 0.00 0.46 0.46 53 1013.1
20220515200512 83 90 8.0 15.0 0.00 0.46 0.46 52 1013.1
20220515200005 83 130 6.0 14.0 0.00 0.46 0.46 52 1013.2
20220515195504 83 125 9.0 15.0 0.00 0.46 0.46 51 1013.3
20220515195004 84 129 8.0 15.0 0.00 0.46 0.46 50 1013.3
20220515194502 83 103 6.0 17.0 0.00 0.46 0.46 52 1013.5
20220515194003 82 140 11.0 17.0 0.00 0.46 0.46 51 1013.5
20220515193502 83 53 10.0 16.0 0.00 0.46 0.46 52 1013.6
20220515193002 83 128 8.0 14.0 0.00 0.46 0.46 53 1013.6
20220515192601 83 121 9.0 14.0 0.00 0.46 0.46 52 1013.7
20220515192102 83 159 9.0 17.0 0.00 0.46 0.46 52 1013.8
20220515191600 83 175 8.0 17.0 0.00 0.46 0.46 53 1013.9
20220515191103 84 92 4.0 17.0 0.00 0.46 0.46 55 1013.9
20220515190603 83 148 8.0 17.0 0.00 0.46 0.46 55 1014.0
20220515190102 83 142 9.0 17.0 0.00 0.46 0.46 54 1014.1
20220515185558 83 129 8.0 14.0 0.00 0.46 0.46 54 1014.1
20220515185100 85 124 7.0 13.0 0.00 0.46 0.46 53 1014.1
20220515184556 84 116 8.0 13.0 0.00 0.46 0.46 53 1014.2
20220515184054 84 133 7.0 14.0 0.00 0.46 0.46 55 1014.2
20220515183556 84 129 7.0 16.0 0.00 0.46 0.46 53 1014.3
20220515183053 84 153 8.0 16.0 0.00 0.46 0.46 53 1014.4
20220515182555 83 96 7.0 13.0 0.00 0.46 0.46 54 1014.5
20220515182050 84 126 8.0 16.0 0.00 0.46 0.46 54 1014.5
20220515181551 83 134 6.0 16.0 0.00 0.46 0.46 55 1014.5
20220515181050 83 167 10.0 17.0 0.00 0.46 0.46 54 1014.5
20220515180551 82 134 8.0 17.0 0.00 0.46 0.46 55 1014.6
20220515180048 83 164 8.0 15.0 0.00 0.46 0.46 56 1014.7
20220515175552 83 105 5.0 11.0 0.00 0.46 0.46 57 1014.6
20220515175048 83 147 5.0 17.0 0.00 0.46 0.46 57 1014.7
20220515174556 82 135 7.0 17.0 0.00 0.46 0.46 58 1014.8
20220515174046 82 142 5.0 17.0 0.00 0.46 0.46 60 1014.9
20220515173546 81 161 7.0 17.0 0.00 0.46 0.46 59 1014.9
20220515173052 82 195 6.0 16.0 0.00 0.46 0.46 59 1015.0
20220515172546 80 109 9.0 20.0 0.00 0.46 0.46 60 1015.1
20220515172058 81 124 9.0 20.0 0.00 0.46 0.46 59 1015.1
20220515171556 82 137 11.0 21.0 0.00 0.46 0.46 58 1015.3
20220515171146 82 113 11.0 21.0 0.00 0.46 0.46 58 1015.3
20220515170546 82 133 11.0 21.0 0.00 0.46 0.46 58 1015.4
20220515170046 82 126 10.0 16.0 0.00 0.46 0.46 58 1015.5
20220515165547 83 143 4.0 17.0 0.00 0.46 0.46 58 1015.5
20220515165045 83 183 7.0 17.0 0.00 0.46 0.46 57 1015.6
20220515164543 83 128 5.0 14.0 0.00 0.46 0.46 58 1015.6
20220515164042 82 103 4.0 15.0 0.00 0.46 0.46 60 1015.7
20220515163544 81 172 9.0 15.0 0.00 0.46 0.46 59 1015.6
20220515163042 82 172 8.0 13.0 0.00 0.46 0.46 59 1015.7
20220515162542 82 152 8.0 14.0 0.00 0.46 0.46 59 1015.8
20220515162041 82 155 7.0 15.0 0.00 0.46 0.46 59 1015.7
20220515161541 82 121 5.0 16.0 0.00 0.46 0.46 59 1015.8
20220515161043 82 146 7.0 12.0 0.00 0.46 0.46 59 1015.7
20220515160540 82 132 7.0 13.0 0.00 0.46 0.46 60 1015.7
20220515160040 82 113 6.0 13.0 0.00 0.46 0.46 60 1015.7
20220515155539 82 132 4.0 13.0 0.00 0.46 0.46 60 1015.7
20220515155047 81 155 5.0 13.0 0.00 0.46 0.46 60 1015.7
20220515154538 81 155 5.0 11.0 0.00 0.46 0.46 61 1015.7
20220515154037 81 102 5.0 11.0 0.00 0.46 0.46 60 1015.8
20220515153537 81 145 4.0 12.0 0.00 0.46 0.46 61 1015.8
20220515153038 81 136 7.0 16.0 0.00 0.46 0.46 60 1016.0
20220515152538 80 135 8.0 16.0 0.00 0.46 0.46 60 1016.0
20220515152037 81 99 8.0 13.0 0.00 0.46 0.46 60 1015.9
20220515151541 81 130 4.0 12.0 0.00 0.46 0.46 60 1016.0
20220515151036 81 180 5.0 12.0 0.00 0.46 0.46 60 1016.0
20220515150537 81 137 3.0 11.0 0.00 0.46 0.46 60 1015.9
20220515150036 81 149 4.0 10.0 0.00 0.46 0.46 61 1015.9
20220515145536 81 103 3.0 10.0 0.00 0.46 0.46 62 1016.0
20220515145035 80 102 5.0 10.0 0.00 0.46 0.46 61 1016.0
20220515144533 81 147 4.0 10.0 0.00 0.46 0.46 62 1016.0
20220515144034 80 128 3.0 11.0 0.00 0.46 0.46 63 1016.0
20220515143532 80 105 3.0 8.0 0.00 0.46 0.46 63 1016.1
20220515143031 80 151 3.0 9.0 0.00 0.46 0.46 63 1016.2
20220515142541 79 121 3.0 11.0 0.00 0.46 0.46 63 1016.3
20220515142030 79 144 3.0 10.0 0.00 0.46 0.46 62 1016.4
20220515141530 79 117 4.0 8.0 0.00 0.46 0.46 62 1016.2
20220515141031 79 123 5.0 8.0 0.00 0.46 0.46 61 1016.3
20220515140535 79 110 2.0 11.0 0.00 0.46 0.46 63 1016.3
20220515140030 80 101 4.0 11.0 0.00 0.46 0.46 62 1016.2
20220515135529 79 125 1.0 9.0 0.00 0.46 0.46 62 1016.2
20220515135029 79 130 2.0 9.0 0.00 0.46 0.46 62 1016.3
20220515134527 79 151 4.0 10.0 0.00 0.46 0.46 62 1016.3
20220515134026 78 146 4.0 10.0 0.00 0.46 0.46 62 1016.3
20220515133528 78 155 4.0 9.0 0.00 0.46 0.46 63 1016.3
20220515133025 78 126 3.0 8.0 0.00 0.46 0.46 64 1016.3
20220515132526 78 123 3.0 7.0 0.00 0.46 0.46 64 1016.4
20220515132023 78 110 3.0 7.0 0.00 0.46 0.46 66 1016.3
20220515131522 77 118 2.0 8.0 0.00 0.46 0.46 65 1016.3
20220515131022 77 95 3.0 8.0 0.00 0.46 0.46 65 1016.3
20220515130524 78 113 2.0 7.0 0.00 0.46 0.46 65 1016.2
20220515130029 77 115 3.0 6.0 0.00 0.46 0.46 65 1016.1
20220515125521 78 126 1.0 4.0 0.00 0.46 0.46 66 1016.2
20220515125021 77 118 1.0 4.0 0.00 0.46 0.46 66 1016.2
20220515124520 77 144 1.0 4.0 0.00 0.46 0.46 67 1016.1
20220515124023 76 109 1.0 4.0 0.00 0.46 0.46 67 1016.2
20220515123519 76 103 1.0 3.0 0.00 0.46 0.46 68 1016.1
20220515123019 76 112 0.0 3.0 0.00 0.46 0.46 68 1016.1
20220515122522 76 97 0.0 0.0 0.00 0.46 0.46 68 1016.0
20220515122018 76 94 0.0 0.0 0.00 0.46 0.46 69 1016.0
20220515121519 75 94 0.0 0.0 0.00 0.46 0.46 69 1016.0
20220515121020 75 94 0.0 0.0 0.00 0.46 0.46 70 1016.1
20220515120518 75 94 0.0 0.0 0.00 0.46 0.46 71 1016.0
20220515120045 75 94 0.0 2.0 0.00 0.46 0.46 72 1016.0
20220515115517 74 95 0.0 2.0 0.00 0.46 0.46 73 1015.9
20220515115017 74 94 0.0 1.0 0.00 0.46 0.46 75 1016.0
20220515114517 74 104 0.0 4.0 0.00 0.46 0.46 75 1015.9
20220515114020 73 111 1.0 6.0 0.00 0.46 0.46 75 1016.0
20220515113519 73 98 1.0 7.0 0.00 0.46 0.46 76 1015.9
20220515113017 73 107 1.0 7.0 0.00 0.46 0.46 76 1015.8
20220515112515 72 46 0.0 3.0 0.00 0.46 0.46 76 1015.7
20220515112014 72 332 0.0 3.0 0.00 0.46 0.46 76 1015.7
20220515111515 72 38 0.0 0.0 0.00 0.46 0.46 76 1015.7
20220515111014 72 38 0.0 0.0 0.00 0.46 0.46 76 1015.6
20220515110514 72 38 0.0 0.0 0.00 0.46 0.46 76 1015.6
20220515110016 71 38 0.0 0.0 0.00 0.46 0.46 76 1015.6
20220515105513 71 38 0.0 0.0 0.00 0.46 0.46 75 1015.5
20220515105015 71 38 0.0 0.0 0.00 0.46 0.46 75 1015.5
20220515104513 71 38 0.0 0.0 0.00 0.46 0.46 74 1015.5
20220515104016 71 38 0.0 0.0 0.00 0.46 0.46 74 1015.4
20220515103516 71 38 0.0 0.0 0.00 0.46 0.46 74 1015.3
20220515103013 71 38 0.0 0.0 0.00 0.46 0.46 74 1015.3
20220515102516 71 38 0.0 0.0 0.00 0.46 0.46 73 1015.1
20220515102016 71 38 0.0 0.0 0.00 0.46 0.46 73 1015.2
20220515101512 71 38 0.0 0.0 0.00 0.46 0.46 73 1015.1
20220515101016 71 38 0.0 0.0 0.00 0.46 0.46 72 1015.0
20220515100517 71 38 0.0 0.0 0.00 0.46 0.46 72 1014.9
20220515100012 71 38 0.0 0.0 0.00 0.46 0.46 72 1015.0
20220515095511 71 38 0.0 0.0 0.00 0.46 0.46 72 1014.9
20220515095010 71 38 0.0 0.0 0.00 0.46 0.46 72 1014.8
20220515094518 71 38 0.0 0.0 0.00 0.46 0.46 72 1014.7
20220515094012 71 38 0.0 0.0 0.00 0.46 0.46 71 1014.7
20220515093511 71 38 0.0 0.0 0.00 0.46 0.46 71 1014.8
20220515093010 71 38 0.0 0.0 0.00 0.46 0.46 71 1014.8
20220515092510 71 38 0.0 0.0 0.00 0.46 0.46 71 1014.8
20220515092010 71 38 0.0 0.0 0.00 0.46 0.46 72 1014.8
20220515091510 71 38 0.0 0.0 0.00 0.46 0.46 72 1014.9
20220515091013 70 36 0.0 0.0 0.00 0.46 0.46 72 1015.0
20220515090512 70 36 0.0 0.0 0.00 0.46 0.46 72 1015.0
20220515090012 70 36 0.0 0.0 0.00 0.46 0.46 72 1015.0
20220515085512 70 35 0.0 2.0 0.00 0.46 0.46 72 1015.0
20220515085013 70 32 0.0 3.0 0.00 0.46 0.46 71 1015.0
20220515084527 70 32 1.0 3.0 0.00 0.46 0.46 71 1014.9
20220515084008 70 31 0.0 3.0 0.00 0.46 0.46 71 1014.9
20220515083508 70 30 0.0 6.0 0.12 0.46 0.46 71 1014.8
20220515083008 70 32 0.0 8.0 0.32 0.46 0.46 71 1014.9
20220515082507 70 36 3.0 8.0 0.45 0.46 0.46 71 1014.9
20220515082007 70 9 2.0 10.0 0.45 0.46 0.46 72 1014.9
20220515081508 70 345 2.0 10.0 0.46 0.46 0.46 72 1014.8
20220515081014 71 33 3.0 9.0 0.46 0.46 0.46 71 1014.8
20220515080504 72 360 2.0 5.0 0.46 0.46 0.46 72 1015.0
20220515080021 72 100 1.0 3.0 0.46 0.46 0.46 72 1015.0
20220515075508 72 79 0.0 3.0 0.46 0.46 0.46 72 1014.9
20220515075004 72 81 0.0 3.0 0.46 0.46 0.46 72 1014.8
20220515074503 71 180 1.0 6.0 0.46 0.46 0.46 71 1014.7
20220515074006 71 239 1.0 9.0 0.46 0.46 0.46 71 1014.7
20220515073501 72 150 2.0 12.0 0.32 0.32 0.32 70 1014.9
20220515073100 75 153 5.0 9.0 0.17 0.17 0.17 72 1015.1
20220515072601 76 246 0.0 0.0 0.01 0.01 0.01 71 1014.8
20220515072100 76 142 0.0 0.0 0.01 0.01 0.01 71 1014.8
20220515071611 76 142 0.0 0.0 0.00 0.00 0.00 71 1014.9
20220515071058 76 142 0.0 0.0 0.00 0.00 0.00 71 1014.9
20220515070559 76 142 0.0 0.0 0.00 0.00 0.00 70 1015.0
20220515070057 76 142 0.0 0.0 0.00 0.00 0.00 71 1015.0
20220515065556 76 142 0.0 0.0 0.00 0.00 0.00 70 1015.0
20220515065200 76 142 0.0 0.0 0.00 0.00 0.00 70 1015.1
20220515064606 76 142 0.0 0.0 0.00 0.00 0.00 70 1015.0
20220515064057 76 142 0.0 0.0 0.00 0.00 0.00 70 1015.1
20220515063553 76 142 0.0 0.0 0.00 0.00 0.00 70 1015.0
20220515063055 77 142 0.0 0.0 0.00 0.00 0.00 70 1015.0
20220515062553 76 142 0.0 3.0 0.00 0.00 0.00 70 1015.0
20220515062052 76 142 0.0 3.0 0.00 0.00 0.00 70 1015.0
20220515061552 76 141 0.0 3.0 0.00 0.00 0.00 70 1015.0
20220515061058 77 141 0.0 3.0 0.00 0.00 0.00 70 1015.0
20220515060552 77 140 1.0 5.0 0.00 0.00 0.00 69 1015.0
20220515060051 77 140 1.0 5.0 0.00 0.00 0.00 69 1015.1
20220515055553 77 145 1.0 5.0 0.00 0.00 0.00 69 1015.2
20220515055050 77 146 2.0 4.0 0.00 0.00 0.00 69 1015.2
20220515054550 77 147 1.0 3.0 0.00 0.00 0.00 69 1015.2
20220515054049 77 136 1.0 3.0 0.00 0.00 0.00 69 1015.2
20220515053550 77 136 0.0 4.0 0.00 0.00 0.00 69 1015.2
20220515053054 77 135 1.0 7.0 0.00 0.00 0.00 69 1015.2